Overview Statistics Trail Chart Weather Telemetry Raw packets
 

This is the latest recevied weather packets stored in our database for station/object SV9TNF-52. If no packets are shown the sender has not sent any weather packets the latest 10 day(s).

<< 104 105 106 107 108 109 110 >>
Time Temp. Humidity Pressure Rain* Wind** Luminosity Snow
1787890611 23.33° C 78% 1020 hPa 0 mm 12.07 m/s, 156° - -
1787890311 23.33° C 79% 1020 hPa 0 mm 5.36 m/s, 237° - -
1787890011 23.33° C 79% 1020 hPa 0 mm 3.13 m/s, 189° - -
1787889711 23.33° C 79% 1020 hPa 0 mm 4.92 m/s, 174° - -
1787889411 23.33° C 79% 1020 hPa 0 mm 4.02 m/s, 188° - -
1787889111 23.33° C 80% 1020 hPa 0 mm 4.92 m/s, 217° - -
1787888811 23.33° C 80% 1020 hPa 0 mm 4.47 m/s, 185° - -
1787888511 23.33° C 80% 1020 hPa 0 mm 5.81 m/s, 165° - -
1787888211 23.33° C 80% 1020 hPa 0 mm 7.15 m/s, 127° - -
1787887910 23.33° C 80% 1020 hPa 0 mm 7.15 m/s, 176° - -
1787887611 23.33° C 80% 1020 hPa 0 mm 8.05 m/s, 176° - -
1787887311 23.33° C 80% 1020 hPa 0 mm 5.81 m/s, 240° - -
1787887010 23.33° C 80% 1020 hPa 0 mm 4.92 m/s, 233° - -
1787886710 23.33° C 80% 1020 hPa 0 mm 2.68 m/s, 238° - -
1787886410 23.33° C 80% 1020 hPa 0 mm 4.02 m/s, 205° - -
1787886110 23.33° C 79% 1020 hPa 0 mm 5.81 m/s, 208° - -
1787885810 23.89° C 79% 1020 hPa 0 mm 9.83 m/s, 177° - -
1787885510 23.89° C 79% 1020 hPa 0 mm 3.13 m/s, 85° - -
1787885210 23.89° C 79% 1020 hPa 0 mm 8.49 m/s, 157° - -
1787884909 23.89° C 79% 1020 hPa 0 mm 7.6 m/s, 164° - -
1787884610 23.89° C 79% 1020 hPa 0 mm 8.05 m/s, 223° - -
1787884309 23.89° C 78% 1020 hPa 0 mm 6.26 m/s, 219° - -
1787884009 23.89° C 78% 1020 hPa 0 mm 4.92 m/s, 151° - -
1787883709 23.89° C 78% 1020 hPa 0 mm 1.79 m/s, 226° - -
1787883409 23.89° C 77% 1020 hPa 0 mm 2.68 m/s, 205° - -

* Rain latest hour (hover to see other rain measurements)
** Current wind speed in m/s (hover to see current wind gust speed)